User: anonymous   Login
Location: Unspecified
(0.0000°N, 0.0000°E)
Time: 03:03:38
(UTC+00:00)
Language:

USA 171 - Orbit

View from above orbital plane
View from above orbital plane
View from above satellite
View from above satellite

Ground track
Ground track

The orbit data is extracted from the following two-line orbital elements,

1 27937U 03041A   18096.44440387 0.00000000  00000-0  00000-0 0    07
2 27937   9.8516  62.7242 0053877 216.8670 142.7717  1.00270000    01
Epoch (UTC): 06 April 2018 10:39:56
Eccentricity: 0.0053877
inclination: 9.8516°
perigee height: 35559 km
apogee height: 36014 km
right ascension of ascending node: 62.7242°
argument of perigee: 216.8670°
revolutions per day: 1.00270000
mean anomaly at epoch: 142.7717°
orbit number at epoch: 0

The dashed part of the orbit path shows where the satellite is in the earth's shadow,  

DLR